When you browse on this site, cookies collect data to enhance your experience and personalize the content and advertising you see.
Visit our Privacy Policy to learn more. By continuing to use the site, you agree to this use of cookies and data.
  • In Austria
  • List of Countries
  • For 7 days
  • Water Temperature
  • Satellite Maps
  • Weather Map
  • News
  • Weather Widgets
  • user-avatar
    Login

    Hourly Weather Kobe

    Today, 27 May, Monday

    Time Temperature Precipitation Wind Pressure Humidity
    00:00 +24°C° 0 mm 2 mps 757 mmHg 60%
    01:00 +24°C° 0 mm 2 mps 757 mmHg 58%
    02:00 +24°C° 0 mm 2 mps 757 mmHg 55%
    03:00 +23°C° 0 mm 2 mps 757 mmHg 53%
    04:00 +23°C° 0 mm 2 mps 757 mmHg 52%
    05:00 +23°C° 0 mm 2 mps 757 mmHg 52%
    06:00 +23°C° 0 mm 2 mps 757 mmHg 51%
    07:00 +25°C° 0 mm 2 mps 757 mmHg 47%
    08:00 +26°C° 0 mm 3 mps 756 mmHg 43%
    09:00 +28°C° 0 mm 3 mps 756 mmHg 39%
    10:00 +28°C° 0 mm 4 mps 756 mmHg 38%
    11:00 +29°C° 0 mm 5 mps 756 mmHg 37%
    12:00 +30°C° 0 mm 7 mps 756 mmHg 37%
    13:00 +29°C° 0 mm 7 mps 755 mmHg 40%
    14:00 +28°C° 0 mm 8 mps 755 mmHg 43%
    15:00 +28°C° 0 mm 8 mps 755 mmHg 46%
    16:00 +27°C° 0 mm 8 mps 755 mmHg 52%
    17:00 +26°C° 0 mm 8 mps 755 mmHg 57%
    18:00 +24°C° 0 mm 8 mps 755 mmHg 63%
    19:00 +23°C° 0 mm 8 mps 754 mmHg 66%
    20:00 +23°C° 0 mm 8 mps 754 mmHg 68%
    21:00 +23°C° 0 mm 8 mps 754 mmHg 71%
    22:00 +23°C° 0 mm 8 mps 754 mmHg 72%
    23:00 +23°C° 0 mm 8 mps 754 mmHg 73%

    Tomorrow, 28 May, Tuesday

    Time Temperature Precipitation Wind Pressure Humidity
    00:00 +23°C° 0 mm 8 mps 754 mmHg 74%
    01:00 +23°C° 0.1 mm 8 mps 753 mmHg 74%
    02:00 +22°C° 0.1 mm 8 mps 753 mmHg 74%
    03:00 +22°C° 0.1 mm 8 mps 753 mmHg 74%
    04:00 +22°C° 0.2 mm 9 mps 753 mmHg 72%
    05:00 +22°C° 0.2 mm 10 mps 753 mmHg 70%
    06:00 +21°C° 0.2 mm 10 mps 753 mmHg 68%
    07:00 +22°C° 0.3 mm 10 mps 752 mmHg 72%
    08:00 +22°C° 0.3 mm 10 mps 752 mmHg 76%
    09:00 +22°C° 0.3 mm 10 mps 752 mmHg 79%
    10:00 +22°C° 0.3 mm 9 mps 752 mmHg 80%
    11:00 +22°C° 0.3 mm 9 mps 752 mmHg 80%
    12:00 +22°C° 0.3 mm 8 mps 752 mmHg 81%
    13:00 +22°C° 0.5 mm 8 mps 751 mmHg 82%
    14:00 +22°C° 0.5 mm 8 mps 751 mmHg 84%
    15:00 +22°C° 0.5 mm 7 mps 751 mmHg 85%
    16:00 +22°C° 2.4 mm 6 mps 751 mmHg 87%
    17:00 +22°C° 2.4 mm 5 mps 751 mmHg 89%
    18:00 +21°C° 2.4 mm 4 mps 750 mmHg 91%
    19:00 +21°C° 0.7 mm 4 mps 751 mmHg 88%
    20:00 +21°C° 0.7 mm 5 mps 751 mmHg 86%
    21:00 +21°C° 0.7 mm 5 mps 751 mmHg 83%
    22:00 +20°C° 0.1 mm 5 mps 751 mmHg 79%
    23:00 +20°C° 0.1 mm 4 mps 751 mmHg 74%

    Day after tomorrow, 29 May, Wednesday

    Time Temperature Precipitation Wind Pressure Humidity
    00:00 +19°C° 0.1 mm 4 mps 751 mmHg 70%
    01:00 +19°C° 0 mm 4 mps 751 mmHg 69%
    02:00 +19°C° 0 mm 4 mps 750 mmHg 68%
    03:00 +18°C° 0 mm 3 mps 750 mmHg 67%
    04:00 +18°C° 0 mm 3 mps 750 mmHg 67%
    05:00 +18°C° 0 mm 4 mps 751 mmHg 66%
    06:00 +18°C° 0 mm 4 mps 751 mmHg 66%
    07:00 +19°C° 0 mm 4 mps 751 mmHg 57%
    08:00 +21°C° 0 mm 4 mps 751 mmHg 48%
    09:00 +22°C° 0 mm 3 mps 751 mmHg 39%
    10:00 +23°C° 0 mm 4 mps 751 mmHg 36%
    11:00 +25°C° 0 mm 4 mps 751 mmHg 32%
    12:00 +26°C° 0 mm 5 mps 751 mmHg 29%
    13:00 +27°C° 0 mm 5 mps 751 mmHg 27%
    14:00 +27°C° 0 mm 5 mps 751 mmHg 25%
    15:00 +27°C° 0 mm 5 mps 751 mmHg 23%
    16:00 +27°C° 0 mm 5 mps 751 mmHg 25%
    17:00 +26°C° 0 mm 5 mps 751 mmHg 26%
    18:00 +25°C° 0 mm 5 mps 751 mmHg 28%
    19:00 +23°C° 0 mm 4 mps 752 mmHg 29%
    20:00 +22°C° 0 mm 4 mps 753 mmHg 31%
    21:00 +20°C° 0 mm 4 mps 753 mmHg 32%
    22:00 +20°C° 0 mm 3 mps 754 mmHg 32%
    23:00 +19°C° 0 mm 3 mps 754 mmHg 32%

    30 May, Thursday

    Time Temperature Precipitation Wind Pressure Humidity
    00:00 +18°C° 0 mm 2 mps 754 mmHg 32%
    01:00 +18°C° 0 mm 2 mps 754 mmHg 31%
    02:00 +18°C° 0 mm 2 mps 754 mmHg 30%
    03:00 +18°C° 0 mm 2 mps 754 mmHg 29%
    04:00 +18°C° 0 mm 2 mps 754 mmHg 30%
    05:00 +19°C° 0 mm 1 mps 755 mmHg 32%
    06:00 +19°C° 0 mm 1 mps 755 mmHg 33%
    07:00 +21°C° 0 mm 1 mps 755 mmHg 30%
    08:00 +23°C° 0 mm 1 mps 755 mmHg 27%
    09:00 +25°C° 0 mm 1 mps 755 mmHg 24%
    10:00 +27°C° 0 mm 1 mps 755 mmHg 23%
    11:00 +28°C° 0 mm 1 mps 755 mmHg 23%
    12:00 +29°C° 0 mm 2 mps 755 mmHg 22%
    13:00 +29°C° 0 mm 2 mps 755 mmHg 24%
    14:00 +29°C° 0 mm 3 mps 754 mmHg 25%
    15:00 +29°C° 0 mm 4 mps 754 mmHg 27%
    16:00 +27°C° 0 mm 5 mps 754 mmHg 33%
    17:00 +26°C° 0 mm 5 mps 754 mmHg 38%
    18:00 +24°C° 0 mm 6 mps 754 mmHg 44%
    19:00 +23°C° 0 mm 6 mps 754 mmHg 46%
    20:00 +23°C° 0 mm 6 mps 755 mmHg 49%
    21:00 +22°C° 0 mm 5 mps 755 mmHg 52%
    22:00 +22°C° 0 mm 5 mps 755 mmHg 52%
    23:00 +22°C° 0 mm 5 mps 755 mmHg 51%

    31 May, Friday

    Time Temperature Precipitation Wind Pressure Humidity
    00:00 +22°C° 0 mm 5 mps 755 mmHg 51%
    01:00 +22°C° 0 mm 4 mps 754 mmHg 51%
    02:00 +22°C° 0 mm 4 mps 754 mmHg 51%
    03:00 +21°C° 0 mm 4 mps 753 mmHg 52%
    04:00 +21°C° 0 mm 4 mps 754 mmHg 52%
    05:00 +21°C° 0 mm 3 mps 754 mmHg 53%
    06:00 +21°C° 0 mm 3 mps 754 mmHg 53%
    07:00 +22°C° 0.1 mm 3 mps 754 mmHg 55%
    08:00 +22°C° 0.1 mm 3 mps 754 mmHg 57%
    09:00 +22°C° 0.1 mm 3 mps 754 mmHg 59%
    10:00 +25°C° 0 mm 3 mps 753 mmHg 54%
    11:00 +26°C° 0 mm 3 mps 753 mmHg 50%
    12:00 +28°C° 0 mm 2 mps 752 mmHg 45%
    13:00 +28°C° 0 mm 3 mps 752 mmHg 44%
    14:00 +28°C° 0 mm 4 mps 751 mmHg 43%
    15:00 +28°C° 0 mm 5 mps 751 mmHg 42%
    16:00 +27°C° 0 mm 5 mps 751 mmHg 46%
    17:00 +26°C° 0 mm 5 mps 751 mmHg 51%
    18:00 +26°C° 0 mm 5 mps 751 mmHg 55%
    19:00 +25°C° 0 mm 4 mps 751 mmHg 60%
    20:00 +23°C° 0 mm 4 mps 752 mmHg 64%
    21:00 +22°C° 0 mm 3 mps 752 mmHg 69%
    22:00 +22°C° 0 mm 3 mps 752 mmHg 68%
    23:00 +21°C° 0 mm 3 mps 752 mmHg 68%

    1 June, Saturday

    Time Temperature Precipitation Wind Pressure Humidity
    00:00 +21°C° 0 mm 2 mps 752 mmHg 68%
    01:00 +21°C° 0 mm 2 mps 752 mmHg 67%
    02:00 +20°C° 0 mm 2 mps 752 mmHg 66%
    03:00 +20°C° 0 mm 2 mps 752 mmHg 65%
    04:00 +20°C° 0 mm 2 mps 752 mmHg 65%
    05:00 +21°C° 0 mm 1 mps 752 mmHg 65%
    06:00 +22°C° 0 mm 1 mps 752 mmHg 64%
    07:00 +23°C° 0 mm 1 mps 752 mmHg 59%
    08:00 +24°C° 0 mm 1 mps 752 mmHg 53%
    09:00 +26°C° 0 mm 1 mps 752 mmHg 48%
    10:00 +27°C° 0 mm 1 mps 752 mmHg 44%
    11:00 +28°C° 0 mm 1 mps 752 mmHg 40%
    12:00 +29°C° 0 mm 2 mps 752 mmHg 36%
    13:00 +29°C° 0 mm 2 mps 751 mmHg 33%
    14:00 +29°C° 0 mm 2 mps 751 mmHg 31%
    15:00 +30°C° 0 mm 2 mps 751 mmHg 29%
    16:00 +29°C° 0 mm 3 mps 751 mmHg 33%
    17:00 +28°C° 0 mm 4 mps 751 mmHg 36%
    18:00 +27°C° 0 mm 4 mps 751 mmHg 40%
    19:00 +26°C° 0 mm 4 mps 752 mmHg 47%
    20:00 +25°C° 0 mm 4 mps 752 mmHg 54%
    21:00 +22°C° 0 mm 4 mps 753 mmHg 61%
    22:00 +22°C° 0 mm 4 mps 753 mmHg 62%
    23:00 +21°C° 0 mm 3 mps 753 mmHg 64%
    Show more